Location: Unspecified
(36.9193°S, 174.7252°E)
Time: 12:36:52
(UTC+13:00)

Envisat - Pass Details

Date: 23 September 2021
Orbit: 764 x 766 km, 98.2° (Epoch: 15 October)

Event Time Altitude Azimuth Distance (km) Brightness Sun altitude
Rises 04:12:57 0° 30° (NNE) 3,222 6.4 -23.7°
Reaches altitude 10° 04:15:19 10° 35° (NE) 2,304 5.7 -23.3°
Maximum altitude 04:20:10 47° 108° (ESE) 1,020 4.0 -22.4°
Drops below altitude 10° 04:25:04 10° 180° (S) 2,333 5.7 -21.4°
Sets 04:27:28 0° 185° (S) 3,268 6.4 -21.0°
